VK2OU Weather Reports


Display with metric or nautical units.
time (UTC)temp
F
wind
direction
speed
MPH
gust
MPH
rain 1hr
in
rain 24hr
in
rain mn
in
humidity
%
barometer
mb
20260508045534 56 285 8.0 17.0 0.00 0.00 0.00 61
20260508045021 60 0.0 1.0 0.00 0.00 0.00 99
20260508044526 56 279 7.0 13.0 0.00 0.00 0.00 62
20260508044049 59 0.0 0.0 0.00 0.00 0.00 99
20260508043554 56 289 7.0 13.0 0.00 0.00 0.00 62
20260508043037 58 267 1.0 7.0 0.00 0.00 0.00 99
20260508042546 56 285 10.0 18.0 0.00 0.00 0.00 61
20260508042027 59 293 0.0 2.0 0.00 0.00 0.00 99
20260508041534 56 275 8.0 16.0 0.00 0.00 0.00 62
20260508041034 60 0.0 1.0 0.00 0.00 0.00 99
20260508040526 57 271 8.0 16.0 0.00 0.00 0.00 61
20260508040024 61 0.0 0.0 0.00 0.00 0.00 99
20260508035534 56 271 5.0 13.0 0.00 0.00 0.00 63
20260508035032 59 0.0 0.0 0.00 0.00 0.00 99
20260508034526 55 283 7.0 14.0 0.00 0.00 0.00 66
20260508034021 59 0.0 0.0 0.00 0.00 0.00 99
20260508033534 56 284 6.0 13.0 0.00 0.00 0.00 64
20260508033107 59 0.0 0.0 0.00 0.00 0.00 99
20260508032526 55 281 8.0 13.0 0.00 0.00 0.00 64
20260508032037 59 315 0.0 6.0 0.00 0.00 0.00 99
20260508031534 56 269 5.0 11.0 0.00 0.00 0.00 64
20260508031026 58 0.0 0.0 0.00 0.00 0.00 99
20260508030526 54 264 6.0 13.0 0.00 0.00 0.00 66
20260508030034 57 0.0 0.0 0.00 0.00 0.00 99
20260508025534 54 275 8.0 15.0 0.00 0.00 0.00 66
20260508025024 57 0.0 1.0 0.00 0.00 0.00 99
20260508024526 54 289 8.0 17.0 0.00 0.00 0.00 68
20260508024031 57 0.0 0.0 0.00 0.00 0.00 99
20260508023534 53 275 7.0 14.0 0.00 0.00 0.00 70
20260508023020 57 309 0.0 3.0 0.00 0.00 0.00 99
20260508022526 52 280 5.0 11.0 0.00 0.00 0.00 71
20260508022028 57 0.0 0.0 0.00 0.00 0.00 99
20260508021534 53 265 4.0 11.0 0.00 0.00 0.00 70
20260508021037 56 0.0 0.0 0.00 0.00 0.00 99
20260508020526 52 271 6.0 15.0 0.00 0.00 0.00 72
20260508020025 55 0.0 0.0 0.00 0.00 0.00 99
20260508015534 51 291 7.0 16.0 0.00 0.00 0.00 72
20260508015033 55 0.0 0.0 0.00 0.00 0.00 99
20260508014526 51 294 7.0 14.0 0.00 0.00 0.00 74
20260508014048 54 293 0.0 3.0 0.00 0.00 0.00 99
20260508013535 50 295 7.0 16.0 0.00 0.00 0.00 75
20260508013030 53 0.0 0.0 0.00 0.00 0.00 99
20260508012547 50 295 6.0 16.0 0.00 0.00 0.00 74
20260508012020 53 0.0 0.0 0.00 0.00 0.00 99
20260508011534 50 289 6.0 13.0 0.00 0.00 0.00 75
20260508011027 52 0.0 0.0 0.00 0.00 0.00 99
20260508010527 49 282 7.0 13.0 0.00 0.00 0.00 75
20260508010054 52 295 1.0 7.0 0.00 0.00 0.00 99
20260508005534 50 293 6.0 13.0 0.00 0.00 0.00 74
20260508005025 52 0.0 0.0 0.00 0.00 0.00 99
20260508004526 49 290 7.0 17.0 0.00 0.00 0.00 75
20260508004033 52 330 1.0 7.0 0.00 0.00 0.00 99
20260508003534 50 283 8.0 15.0 0.00 0.00 0.00 74
20260508003022 52 1.0 9.0 0.00 0.00 0.00 99
20260508002606 49 270 6.0 14.0 0.00 0.00 0.00 75
20260508002050 52 293 0.0 1.0 0.00 0.00 0.00 99
20260508001534 50 273 6.0 11.0 0.00 0.00 0.00 74
20260508001020 51 0.0 0.0 0.00 0.00 0.00 99
20260508000527 49 265 6.0 11.0 0.00 0.00 0.00 76
20260508000048 51 293 0.0 1.0 0.00 0.00 0.00 99
20260507235534 48 268 5.0 10.0 0.00 0.00 0.00 77
20260507235035 50 0.0 0.0 0.00 0.00 0.00 99
20260507234526 47 272 6.0 15.0 0.00 0.00 0.00 78
20260507234024 49 0.0 0.0 0.00 0.00 0.00 99
20260507233534 47 282 6.0 15.0 0.00 0.00 0.00 78
20260507233052 49 248 0.0 1.0 0.00 0.00 0.00 99
20260507232527 47 282 6.0 14.0 0.00 0.00 0.00 79
20260507232022 48 0.0 3.0 0.00 0.00 0.00 99
20260507231535 46 282 6.0 14.0 0.00 0.00 0.00 81
20260507231528 47 0.0 0.0 0.00 0.00 0.00 99
20260507230527 46 279 5.0 16.0 0.00 0.00 0.00 82
20260507230037 47 0.0 0.0 0.00 0.00 0.00 99
20260507225535 44 281 4.0 11.0 0.00 0.00 0.00 84
20260507225045 45 0.0 0.0 0.00 0.00 0.00 99
20260507224526 44 288 6.0 11.0 0.00 0.00 0.00 84
20260507224034 45 0.0 1.0 0.00 0.00 0.00 99
20260507223534 45 297 4.0 9.0 0.00 0.00 0.00 82
20260507223024 46 0.0 0.0 0.00 0.00 0.00 99
20260507222526 44 285 4.0 9.0 0.00 0.00 0.00 83
20260507222032 45 0.0 0.0 0.00 0.00 0.00 99
20260507221534 44 284 5.0 11.0 0.00 0.00 0.00 84
20260507221204 44 0.0 5.0 0.00 0.00 0.00 99
20260507220526 43 283 6.0 15.0 0.00 0.00 0.00 86
20260507220029 43 0.0 0.0 0.00 0.00 0.00 99
20260507215534 41 261 3.0 5.0 0.00 0.00 0.00 89
20260507214527 40 279 5.0 9.0 0.00 0.00 0.00 90
20260507213534 40 281 5.0 8.0 0.00 0.00 0.00 91
20260507212527 39 290 4.0 8.0 0.00 0.00 0.00 92
20260507211833 38 0.0 0.0 0.00 0.00 0.00 99
20260507211535 38 272 3.0 5.0 0.00 0.00 0.00 93
20260507210555 38 0.0 0.0 0.00 0.00 0.00 99
20260507210547 38 268 4.0 6.0 0.00 0.00 0.00 92
20260507205614 38 269 4.0 6.0 0.00 0.00 0.00 93
20260507205604 38 0.0 0.0 0.00 0.00 0.00 99
20260507204532 38 0.0 0.0 0.00 0.00 0.00 99
20260507204526 38 282 4.0 7.0 0.00 0.00 0.00 92
20260507203534 38 259 1.0 2.0 0.00 0.00 0.00 92
20260507203524 38 0.0 0.0 0.00 0.00 0.00 99
20260507202530 38 0.0 0.0 0.00 0.00 0.00 99
20260507202526 38 271 3.0 7.0 0.00 0.00 0.00 91
20260507201537 38 0.0 0.0 0.00 0.00 0.00 99
20260507201534 38 273 3.0 6.0 0.00 0.00 0.00 91
20260507200527 38 0.0 0.0 0.00 0.00 0.00 99
20260507195534 39 265 2.0 5.0 0.00 0.00 0.00 89
20260507194526 39 285 4.0 8.0 0.00 0.00 0.00 89
20260507194524 39 0.0 0.0 0.00 0.00 0.00 99
20260507193534 39 270 5.0 8.0 0.00 0.00 0.00 89
20260507193532 39 0.0 0.0 0.00 0.00 0.00 99
20260507192546 39 276 5.0 10.0 0.00 0.00 0.00 88
20260507192542 39 0.0 0.0 0.00 0.00 0.00 99
20260507191534 39 283 5.0 9.0 0.00 0.00 0.00 87
20260507191529 39 0.0 0.0 0.00 0.00 0.00 99
20260507190539 39 0.0 0.0 0.00 0.00 0.00 99
20260507190527 39 271 6.0 11.0 0.00 0.00 0.00 87
20260507185534 40 283 4.0 9.0 0.00 0.00 0.00 85
20260507185527 39 0.0 0.0 0.00 0.00 0.00 99
20260507184534 39 0.0 0.0 0.00 0.00 0.00 99
20260507184526 40 280 6.0 13.0 0.00 0.00 0.00 85
20260507183534 40 279 6.0 11.0 0.00 0.00 0.00 85
20260507183523 39 0.0 0.0 0.00 0.00 0.00 99
20260507182551 39 0.0 0.0 0.00 0.00 0.00 99
20260507182547 39 280 6.0 15.0 0.00 0.00 0.00 84
20260507181555 39 264 6.0 14.0 0.00 0.00 0.00 84
20260507181521 39 0.0 0.0 0.00 0.00 0.00 99
20260507180528 39 0.0 0.0 0.00 0.00 0.00 99
20260507180526 39 272 6.0 10.0 0.00 0.00 0.00 83
20260507175616 39 0.0 0.0 0.00 0.00 0.00 99
20260507174546 39 275 4.0 11.0 0.00 0.00 0.00 82
20260507173554 39 0.0 0.0 0.00 0.00 0.00 99
20260507172526 39 281 5.0 11.0 0.00 0.00 0.00 81
20260507172523 38 0.0 0.0 0.00 0.00 0.00 99
20260507171535 39 266 6.0 11.0 0.00 0.00 0.00 81
20260507171531 38 0.0 0.0 0.00 0.00 0.00 99
20260507170526 38 270 5.0 8.0 0.00 0.00 0.00 82
20260507170520 38 0.0 0.0 0.00 0.00 0.00 99
20260507165534 38 275 4.0 8.0 0.00 0.00 0.00 81
20260507165528 38 0.0 0.0 0.00 0.00 0.00 99
20260507164555 39 0.0 0.0 0.00 0.00 0.00 99
20260507164547 39 279 5.0 11.0 0.00 0.00 0.00 80
20260507163534 39 277 7.0 11.0 0.00 0.00 0.00 80
20260507163526 39 0.0 0.0 0.00 0.00 0.00 99
20260507162533 39 0.0 0.0 0.00 0.00 0.00 99
20260507162526 39 267 5.0 10.0 0.00 0.00 0.00 81
20260507161534 39 275 5.0 9.0 0.00 0.00 0.00 80
20260507161522 39 0.0 0.0 0.00 0.00 0.00 99
20260507160530 39 0.0 0.0 0.00 0.00 0.00 99
20260507160527 39 276 6.0 10.0 0.00 0.00 0.00 80
20260507155534 39 269 4.0 10.0 0.00 0.00 0.00 79
20260507155520 38 0.0 0.0 0.00 0.00 0.00 99
20260507154528 38 0.0 0.0 0.00 0.00 0.00 99
20260507154526 39 273 4.0 7.0 0.00 0.00 0.00 79
20260507153535 38 0.0 0.0 0.00 0.00 0.00 99
20260507152526 39 266 3.0 8.0 0.00 0.00 0.00 79
20260507152524 38 0.0 0.0 0.00 0.00 0.00 99
20260507151534 39 274 5.0 9.0 0.00 0.00 0.00 78
20260507150526 39 270 6.0 11.0 0.00 0.00 0.00 78
20260507150522 38 0.0 0.0 0.00 0.00 0.00 99
20260507145534 38 271 6.0 16.0 0.00 0.00 0.00 79
20260507145530 37 0.0 0.0 0.00 0.00 0.00 99
20260507144543 37 0.0 0.0 0.00 0.00 0.00 99
20260507144527 36 243 2.0 9.0 0.00 0.00 0.00 82
20260507143534 36 252 1.0 6.0 0.00 0.00 0.00 81
20260507143527 36 0.0 0.0 0.00 0.00 0.00 99
20260507142535 36 0.0 0.0 0.00 0.00 0.00 99
20260507142526 36 271 2.0 6.0 0.00 0.00 0.00 80
20260507141534 37 264 2.0 5.0 0.00 0.00 0.00 79
20260507141524 36 0.0 0.0 0.00 0.00 0.00 99
20260507140532 37 0.0 0.0 0.00 0.00 0.00 99
20260507140526 37 270 3.0 5.0 0.00 0.00 0.00 78
20260507135534 37 272 4.0 8.0 0.00 0.00 0.00 78
20260507135522 37 0.0 0.0 0.00 0.00 0.00 99
20260507134529 36 0.0 0.0 0.00 0.00 0.00 99
20260507134526 37 266 4.0 9.0 0.00 0.00 0.00 79
20260507133537 37 0.0 0.0 0.00 0.00 0.00 99
20260507133534 37 279 3.0 6.0 0.00 0.00 0.00 78
20260507132607 37 274 3.0 6.0 0.00 0.00 0.00 78
20260507131534 37 0.0 0.0 0.00 0.00 0.00 99
20260507130547 37 279 4.0 6.0 0.00 0.00 0.00 78
20260507130545 37 0.0 0.0 0.00 0.00 0.00 99
20260507125534 38 280 3.0 5.0 0.00 0.00 0.00 77
20260507125531 37 0.0 0.0 0.00 0.00 0.00 99
20260507124546 38 268 4.0 6.0 0.00 0.00 0.00 76
20260507124521 38 0.0 0.0 0.00 0.00 0.00 99
20260507123534 38 271 4.0 9.0 0.00 0.00 0.00 76
20260507123529 38 0.0 0.0 0.00 0.00 0.00 99
20260507122536 38 0.0 0.0 0.00 0.00 0.00 99
20260507122526 38 260 5.0 11.0 0.00 0.00 0.00 75
20260507121534 38 272 4.0 7.0 0.00 0.00 0.00 76
20260507121526 38 0.0 0.0 0.00 0.00 0.00 99
20260507120546 39 286 4.0 10.0 0.00 0.00 0.00 74
20260507115534 39 278 3.0 8.0 0.00 0.00 0.00 74
20260507114526 39 291 4.0 7.0 0.00 0.00 0.00 73
20260507113534 39 276 4.0 7.0 0.00 0.00 0.00 72
20260507112606 39 275 5.0 10.0 0.00 0.00 0.00 72
20260507112032 39 0.0 0.0 0.00 0.00 0.00 99
20260507111535 39 270 5.0 10.0 0.00 0.00 0.00 73
20260507111022 39 0.0 0.0 0.00 0.00 0.00 99
20260507110526 39 279 5.0 11.0 0.00 0.00 0.00 74
20260507110029 39 0.0 0.0 0.00 0.00 0.00 99
20260507105534 39 267 5.0 11.0 0.00 0.00 0.00 74
20260507105057 39 0.0 0.0 0.00 0.00 0.00 99
20260507104526 39 272 6.0 9.0 0.00 0.00 0.00 73
20260507104027 39 0.0 0.0 0.00 0.00 0.00 99
20260507103534 39 262 5.0 9.0 0.00 0.00 0.00 73
20260507103035 39 0.0 0.0 0.00 0.00 0.00 99
20260507102527 40 265 6.0 13.0 0.00 0.00 0.00 72
20260507102023 39 0.0 0.0 0.00 0.00 0.00 99
20260507101534 40 262 6.0 11.0 0.00 0.00 0.00 71
20260507100526 40 263 6.0 11.0 0.00 0.00 0.00 71
20260507095535 39 262 5.0 10.0 0.00 0.00 0.00 73
20260507094527 39 261 4.0 10.0 0.00 0.00 0.00 73
20260507093535 39 255 4.0 7.0 0.00 0.00 0.00 72
20260507092528 40 260 4.0 7.0 0.00 0.00 0.00 71
20260507091534 40 254 3.0 8.0 0.00 0.00 0.00 69
20260507091519 40 0.0 0.0 0.00 0.00 0.00 99
20260507090526 41 0.0 0.0 0.00 0.00 0.00 99
20260507085535 41 0.0 0.0 0.00 0.00 0.00 99
20260507084526 41 273 7.0 14.0 0.00 0.00 0.00 67
20260507083534 42 268 6.0 11.0 0.00 0.00 0.00 66
20260507082526 42 258 5.0 11.0 0.00 0.00 0.00 66
20260507082522 42 0.0 0.0 0.00 0.00 0.00 99
20260507081534 42 259 5.0 9.0 0.00 0.00 0.00 65
20260507081529 42 0.0 0.0 0.00 0.00 0.00 99
20260507080537 42 0.0 0.0 0.00 0.00 0.00 99
20260507080528 42 263 6.0 13.0 0.00 0.00 0.00 64
20260507075554 42 259 6.0 15.0 0.00 0.00 0.00 62
20260507075552 42 0.0 0.0 0.00 0.00 0.00 99
20260507074534 43 0.0 0.0 0.00 0.00 0.00 99
20260507074529 43 266 6.0 17.0 0.00 0.00 0.00 61
20260507073534 43 255 7.0 15.0 0.00 0.00 0.00 59
20260507073524 43 0.0 0.0 0.00 0.00 0.00 99
20260507072532 43 0.0 1.0 0.00 0.00 0.00 99
20260507072527 43 241 6.0 13.0 0.00 0.00 0.00 58
20260507071534 43 243 5.0 16.0 0.00 0.00 0.00 58
20260507071523 43 0.0 0.0 0.00 0.00 0.00 99
20260507070528 43 0.0 0.0 0.00 0.00 0.00 99
20260507070526 43 241 6.0 10.0 0.00 0.00 0.00 60
20260507065558 43 0.0 0.0 0.00 0.00 0.00 99
20260507065556 43 251 7.0 17.0 0.00 0.00 0.00 59
20260507064548 44 0.0 0.0 0.00 0.00 0.00 99
20260507063534 44 253 6.0 13.0 0.00 0.00 0.00 57
20260507062526 45 254 7.0 14.0 0.00 0.00 0.00 55
20260507061557 46 245 7.0 13.0 0.00 0.00 0.00 52
20260507061036 48 0.0 0.0 0.00 0.00 0.00 99
20260507060530 46 253 5.0 11.0 0.00 0.00 0.00 49
20260507060025 49 0.0 4.0 0.00 0.00 0.00 99
20260507055537 47 242 7.0 15.0 0.00 0.00 0.00 47
20260507055033 50 0.0 1.0 0.00 0.00 0.00 99
20260507054527 47 251 8.0 16.0 0.00 0.00 0.00 46
20260507054022 50 234 0.0 2.0 0.00 0.00 0.00 99
20260507053534 48 256 8.0 19.0 0.00 0.00 0.00 46
20260507053030 50 225 0.0 1.0 0.00 0.00 0.00 99
20260507052527 47 240 9.0 18.0 0.00 0.00 0.00 47
20260507052037 51 228 0.0 2.0 0.00 0.00 0.00 99
20260507051534 48 246 7.0 15.0 0.00 0.00 0.00 47
20260507051029 50 233 1.0 3.0 0.00 0.00 0.00 99
20260507050526 49 239 11.0 21.0 0.00 0.00 0.00 44